owner,sensor,date,latitude,longitude,air_temperature,qcFlag 
COMPS,ioos:station:USF.COMPS:ARP:1,2019-02-01T00:00:00Z,28.4330,-82.6670,16.64,1111122 
COMPS,ioos:station:USF.COMPS:ARP:1,2019-02-01T00:06:00Z,28.4330,-82.6670,16.57,1111122 
COMPS,ioos:station:USF.COMPS:ARP:1,2019-02-01T00:12:00Z,28.4330,-82.6670,16.51,1111122 
COMPS,ioos:station:USF.COMPS:ARP:1,2019-02-01T00:18:00Z,28.4330,-82.6670,16.47,1111122 
COMPS,ioos:station:USF.COMPS:ARP:1,2019-02-01T00:24:00Z,28.4330,-82.6670,16.35,1111122 
COMPS,ioos:station:USF.COMPS:ARP:1,2019-02-01T00:30:00Z,28.4330,-82.6670,16.26,1111122 
COMPS,ioos:station:USF.COMPS:ARP:1,2019-02-01T00:36:00Z,28.4330,-82.6670,16.16,1111122 
COMPS,ioos:station:USF.COMPS:ARP:1,2019-02-01T00:42:00Z,28.4330,-82.6670,16.03,1111122 
COMPS,ioos:station:USF.COMPS:ARP:1,2019-02-01T00:48:00Z,28.4330,-82.6670,15.94,1111122 
COMPS,ioos:station:USF.COMPS:ARP:1,2019-02-01T00:54:00Z,28.4330,-82.6670,16.01,1111122 
COMPS,ioos:station:USF.COMPS:ARP:1,2019-02-01T01:00:00Z,28.4330,-82.6670,15.85,1111122 
COMPS,ioos:station:USF.COMPS:ARP:1,2019-02-01T01:06:00Z,28.4330,-82.6670,15.76,1111122 
COMPS,ioos:station:USF.COMPS:ARP:1,2019-02-01T01:12:00Z,28.4330,-82.6670,15.64,1111122 
COMPS,ioos:station:USF.COMPS:ARP:1,2019-02-01T01:18:00Z,28.4330,-82.6670,15.55,1111122 
COMPS,ioos:station:USF.COMPS:ARP:1,2019-02-01T01:24:00Z,28.4330,-82.6670,15.46,1111122 
COMPS,ioos:station:USF.COMPS:ARP:1,2019-02-01T01:30:00Z,28.4330,-82.6670,15.36,1111122 
COMPS,ioos:station:USF.COMPS:ARP:1,2019-02-01T01:36:00Z,28.4330,-82.6670,15.28,1111122 
COMPS,ioos:station:USF.COMPS:ARP:1,2019-02-01T01:42:00Z,28.4330,-82.6670,15.25,1111122 
COMPS,ioos:station:USF.COMPS:ARP:1,2019-02-01T01:48:00Z,28.4330,-82.6670,15.16,1111122 
COMPS,ioos:station:USF.COMPS:ARP:1,2019-02-01T01:54:00Z,28.4330,-82.6670,15.24,1111122 
COMPS,ioos:station:USF.COMPS:ARP:1,2019-02-01T02:00:00Z,28.4330,-82.6670,15.07,1111122 
COMPS,ioos:station:USF.COMPS:ARP:1,2019-02-01T02:06:00Z,28.4330,-82.6670,14.99,1111122 
COMPS,ioos:station:USF.COMPS:ARP:1,2019-02-01T02:12:00Z,28.4330,-82.6670,14.95,1111122 
COMPS,ioos:station:USF.COMPS:ARP:1,2019-02-01T02:18:00Z,28.4330,-82.6670,14.85,1111122 
COMPS,ioos:station:USF.COMPS:ARP:1,2019-02-01T02:24:00Z,28.4330,-82.6670,14.73,1111122 
COMPS,ioos:station:USF.COMPS:ARP:1,2019-02-01T02:30:00Z,28.4330,-82.6670,14.58,1111122 
COMPS,ioos:station:USF.COMPS:ARP:1,2019-02-01T02:36:00Z,28.4330,-82.6670,14.48,1111122 
COMPS,ioos:station:USF.COMPS:ARP:1,2019-02-01T02:42:00Z,28.4330,-82.6670,14.47,1111122 
COMPS,ioos:station:USF.COMPS:ARP:1,2019-02-01T02:48:00Z,28.4330,-82.6670,14.45,1111122 
COMPS,ioos:station:USF.COMPS:ARP:1,2019-02-01T02:54:00Z,28.4330,-82.6670,14.45,1111122 
COMPS,ioos:station:USF.COMPS:ARP:1,2019-02-01T03:00:00Z,28.4330,-82.6670,14.31,1111122 
COMPS,ioos:station:USF.COMPS:ARP:1,2019-02-01T03:06:00Z,28.4330,-82.6670,14.24,1111122 
COMPS,ioos:station:USF.COMPS:ARP:1,2019-02-01T03:12:00Z,28.4330,-82.6670,14.16,1111122 
COMPS,ioos:station:USF.COMPS:ARP:1,2019-02-01T03:18:00Z,28.4330,-82.6670,14.03,1111122 
COMPS,ioos:station:USF.COMPS:ARP:1,2019-02-01T03:24:00Z,28.4330,-82.6670,13.91,1111122 
COMPS,ioos:station:USF.COMPS:ARP:1,2019-02-01T03:30:00Z,28.4330,-82.6670,13.82,1111122 
COMPS,ioos:station:USF.COMPS:ARP:1,2019-02-01T03:36:00Z,28.4330,-82.6670,13.75,1111122 
COMPS,ioos:station:USF.COMPS:ARP:1,2019-02-01T03:42:00Z,28.4330,-82.6670,13.65,1111122 
COMPS,ioos:station:USF.COMPS:ARP:1,2019-02-01T03:48:00Z,28.4330,-82.6670,13.62,1111122 
COMPS,ioos:station:USF.COMPS:ARP:1,2019-02-01T03:54:00Z,28.4330,-82.6670,13.6,1111122 
COMPS,ioos:station:USF.COMPS:ARP:1,2019-02-01T04:00:00Z,28.4330,-82.6670,13.52,1111122 
COMPS,ioos:station:USF.COMPS:ARP:1,2019-02-01T04:06:00Z,28.4330,-82.6670,13.42,1111122 
COMPS,ioos:station:USF.COMPS:ARP:1,2019-02-01T04:12:00Z,28.4330,-82.6670,13.37,1111122 
COMPS,ioos:station:USF.COMPS:ARP:1,2019-02-01T04:18:00Z,28.4330,-82.6670,13.28,1111122 
COMPS,ioos:station:USF.COMPS:ARP:1,2019-02-01T04:24:00Z,28.4330,-82.6670,13.24,1111122 
COMPS,ioos:station:USF.COMPS:ARP:1,2019-02-01T04:30:00Z,28.4330,-82.6670,13.12,1111122 
COMPS,ioos:station:USF.COMPS:ARP:1,2019-02-01T04:36:00Z,28.4330,-82.6670,13.14,1111122 
COMPS,ioos:station:USF.COMPS:ARP:1,2019-02-01T04:42:00Z,28.4330,-82.6670,13.1,1111122 
COMPS,ioos:station:USF.COMPS:ARP:1,2019-02-01T04:48:00Z,28.4330,-82.6670,13.08,1111122 
COMPS,ioos:station:USF.COMPS:ARP:1,2019-02-01T04:54:00Z,28.4330,-82.6670,13.13,1111122 
COMPS,ioos:station:USF.COMPS:ARP:1,2019-02-01T05:00:00Z,28.4330,-82.6670,13.0,1111122 
COMPS,ioos:station:USF.COMPS:ARP:1,2019-02-01T05:06:00Z,28.4330,-82.6670,12.96,1111122 
COMPS,ioos:station:USF.COMPS:ARP:1,2019-02-01T05:12:00Z,28.4330,-82.6670,12.96,1111122 
COMPS,ioos:station:USF.COMPS:ARP:1,2019-02-01T05:18:00Z,28.4330,-82.6670,12.98,1111122 
COMPS,ioos:station:USF.COMPS:ARP:1,2019-02-01T05:24:00Z,28.4330,-82.6670,12.96,1111122 
COMPS,ioos:station:USF.COMPS:ARP:1,2019-02-01T05:30:00Z,28.4330,-82.6670,12.98,1111122 
COMPS,ioos:station:USF.COMPS:ARP:1,2019-02-01T05:36:00Z,28.4330,-82.6670,12.96,1111122 
COMPS,ioos:station:USF.COMPS:ARP:1,2019-02-01T05:42:00Z,28.4330,-82.6670,12.95,1111122 
COMPS,ioos:station:USF.COMPS:ARP:1,2019-02-01T05:48:00Z,28.4330,-82.6670,12.89,1111122 
COMPS,ioos:station:USF.COMPS:ARP:1,2019-02-01T05:54:00Z,28.4330,-82.6670,12.92,1111122 
COMPS,ioos:station:USF.COMPS:ARP:1,2019-02-01T06:00:00Z,28.4330,-82.6670,12.81,1111122 
COMPS,ioos:station:USF.COMPS:ARP:1,2019-02-01T06:06:00Z,28.4330,-82.6670,12.83,1111122 
COMPS,ioos:station:USF.COMPS:ARP:1,2019-02-01T06:12:00Z,28.4330,-82.6670,12.8,1111122 
COMPS,ioos:station:USF.COMPS:ARP:1,2019-02-01T06:18:00Z,28.4330,-82.6670,12.83,1111122 
COMPS,ioos:station:USF.COMPS:ARP:1,2019-02-01T06:24:00Z,28.4330,-82.6670,12.87,1111122 
COMPS,ioos:station:USF.COMPS:ARP:1,2019-02-01T06:30:00Z,28.4330,-82.6670,12.88,1111122 
COMPS,ioos:station:USF.COMPS:ARP:1,2019-02-01T06:36:00Z,28.4330,-82.6670,12.91,1111122 
COMPS,ioos:station:USF.COMPS:ARP:1,2019-02-01T06:42:00Z,28.4330,-82.6670,12.88,1111122 
COMPS,ioos:station:USF.COMPS:ARP:1,2019-02-01T06:48:00Z,28.4330,-82.6670,12.86,1111122 
COMPS,ioos:station:USF.COMPS:ARP:1,2019-02-01T06:54:00Z,28.4330,-82.6670,12.9,1111122 
COMPS,ioos:station:USF.COMPS:ARP:1,2019-02-01T07:00:00Z,28.4330,-82.6670,12.78,1111122 
COMPS,ioos:station:USF.COMPS:ARP:1,2019-02-01T07:06:00Z,28.4330,-82.6670,12.73,1111122 
COMPS,ioos:station:USF.COMPS:ARP:1,2019-02-01T07:12:00Z,28.4330,-82.6670,12.7,1111122 
COMPS,ioos:station:USF.COMPS:ARP:1,2019-02-01T07:18:00Z,28.4330,-82.6670,12.7,1111122 
COMPS,ioos:station:USF.COMPS:ARP:1,2019-02-01T07:24:00Z,28.4330,-82.6670,12.66,1111122 
COMPS,ioos:station:USF.COMPS:ARP:1,2019-02-01T07:30:00Z,28.4330,-82.6670,12.63,1111122 
COMPS,ioos:station:USF.COMPS:ARP:1,2019-02-01T07:36:00Z,28.4330,-82.6670,12.6,1111122 
COMPS,ioos:station:USF.COMPS:ARP:1,2019-02-01T07:42:00Z,28.4330,-82.6670,12.65,1111122 
COMPS,ioos:station:USF.COMPS:ARP:1,2019-02-01T07:48:00Z,28.4330,-82.6670,12.66,1111122 
COMPS,ioos:station:USF.COMPS:ARP:1,2019-02-01T07:54:00Z,28.4330,-82.6670,12.75,1111122 
COMPS,ioos:station:USF.COMPS:ARP:1,2019-02-01T08:00:00Z,28.4330,-82.6670,12.69,1111122 
COMPS,ioos:station:USF.COMPS:ARP:1,2019-02-01T08:06:00Z,28.4330,-82.6670,12.78,1111122 
COMPS,ioos:station:USF.COMPS:ARP:1,2019-02-01T08:12:00Z,28.4330,-82.6670,12.82,1111122 
COMPS,ioos:station:USF.COMPS:ARP:1,2019-02-01T08:18:00Z,28.4330,-82.6670,12.82,1111122 
COMPS,ioos:station:USF.COMPS:ARP:1,2019-02-01T08:24:00Z,28.4330,-82.6670,12.9,1111122 
COMPS,ioos:station:USF.COMPS:ARP:1,2019-02-01T08:30:00Z,28.4330,-82.6670,12.98,1111122 
COMPS,ioos:station:USF.COMPS:ARP:1,2019-02-01T08:36:00Z,28.4330,-82.6670,13.06,1111122 
COMPS,ioos:station:USF.COMPS:ARP:1,2019-02-01T08:42:00Z,28.4330,-82.6670,13.08,1111122 
COMPS,ioos:station:USF.COMPS:ARP:1,2019-02-01T08:48:00Z,28.4330,-82.6670,13.2,1111122 
COMPS,ioos:station:USF.COMPS:ARP:1,2019-02-01T08:54:00Z,28.4330,-82.6670,13.34,1111122 
COMPS,ioos:station:USF.COMPS:ARP:1,2019-02-01T09:00:00Z,28.4330,-82.6670,13.35,1111122 
COMPS,ioos:station:USF.COMPS:ARP:1,2019-02-01T09:06:00Z,28.4330,-82.6670,13.41,1111122 
COMPS,ioos:station:USF.COMPS:ARP:1,2019-02-01T09:12:00Z,28.4330,-82.6670,13.53,1111122 
COMPS,ioos:station:USF.COMPS:ARP:1,2019-02-01T09:18:00Z,28.4330,-82.6670,13.66,1111122 
COMPS,ioos:station:USF.COMPS:ARP:1,2019-02-01T09:24:00Z,28.4330,-82.6670,13.84,1111122 
COMPS,ioos:station:USF.COMPS:ARP:1,2019-02-01T09:30:00Z,28.4330,-82.6670,13.96,1111122 
COMPS,ioos:station:USF.COMPS:ARP:1,2019-02-01T09:36:00Z,28.4330,-82.6670,14.09,1111122 
COMPS,ioos:station:USF.COMPS:ARP:1,2019-02-01T09:42:00Z,28.4330,-82.6670,14.2,1111122 
COMPS,ioos:station:USF.COMPS:ARP:1,2019-02-01T09:48:00Z,28.4330,-82.6670,14.29,1111122 
COMPS,ioos:station:USF.COMPS:ARP:1,2019-02-01T09:54:00Z,28.4330,-82.6670,14.48,1111122 
COMPS,ioos:station:USF.COMPS:ARP:1,2019-02-01T10:00:00Z,28.4330,-82.6670,14.45,1111122 
COMPS,ioos:station:USF.COMPS:ARP:1,2019-02-01T10:06:00Z,28.4330,-82.6670,14.5,1111122 
COMPS,ioos:station:USF.COMPS:ARP:1,2019-02-01T10:12:00Z,28.4330,-82.6670,14.54,1111122 
COMPS,ioos:station:USF.COMPS:ARP:1,2019-02-01T10:18:00Z,28.4330,-82.6670,14.49,1111122 
COMPS,ioos:station:USF.COMPS:ARP:1,2019-02-01T10:24:00Z,28.4330,-82.6670,14.44,1111122 
COMPS,ioos:station:USF.COMPS:ARP:1,2019-02-01T10:30:00Z,28.4330,-82.6670,14.4,1111122 
COMPS,ioos:station:USF.COMPS:ARP:1,2019-02-01T10:36:00Z,28.4330,-82.6670,14.39,1111122 
COMPS,ioos:station:USF.COMPS:ARP:1,2019-02-01T10:42:00Z,28.4330,-82.6670,14.3,1111122 
COMPS,ioos:station:USF.COMPS:ARP:1,2019-02-01T10:48:00Z,28.4330,-82.6670,14.25,1111122 
COMPS,ioos:station:USF.COMPS:ARP:1,2019-02-01T10:54:00Z,28.4330,-82.6670,14.33,1111122 
COMPS,ioos:station:USF.COMPS:ARP:1,2019-02-01T11:00:00Z,28.4330,-82.6670,14.21,1111122 
COMPS,ioos:station:USF.COMPS:ARP:1,2019-02-01T11:06:00Z,28.4330,-82.6670,14.19,1111122 
COMPS,ioos:station:USF.COMPS:ARP:1,2019-02-01T11:12:00Z,28.4330,-82.6670,14.19,1111122 
COMPS,ioos:station:USF.COMPS:ARP:1,2019-02-01T11:18:00Z,28.4330,-82.6670,14.22,1111122 
COMPS,ioos:station:USF.COMPS:ARP:1,2019-02-01T11:24:00Z,28.4330,-82.6670,14.25,1111122 
COMPS,ioos:station:USF.COMPS:ARP:1,2019-02-01T11:30:00Z,28.4330,-82.6670,14.24,1111122 
COMPS,ioos:station:USF.COMPS:ARP:1,2019-02-01T11:36:00Z,28.4330,-82.6670,14.27,1111122 
COMPS,ioos:station:USF.COMPS:ARP:1,2019-02-01T11:42:00Z,28.4330,-82.6670,14.27,1111122 
COMPS,ioos:station:USF.COMPS:ARP:1,2019-02-01T11:48:00Z,28.4330,-82.6670,14.27,1111122 
COMPS,ioos:station:USF.COMPS:ARP:1,2019-02-01T11:54:00Z,28.4330,-82.6670,14.31,1111122 
COMPS,ioos:station:USF.COMPS:ARP:1,2019-02-01T12:00:00Z,28.4330,-82.6670,14.21,1111122 
COMPS,ioos:station:USF.COMPS:ARP:1,2019-02-01T12:06:00Z,28.4330,-82.6670,14.28,1111122 
COMPS,ioos:station:USF.COMPS:ARP:1,2019-02-01T12:12:00Z,28.4330,-82.6670,14.33,1111122 
COMPS,ioos:station:USF.COMPS:ARP:1,2019-02-01T12:18:00Z,28.4330,-82.6670,14.38,1111122 
COMPS,ioos:station:USF.COMPS:ARP:1,2019-02-01T12:24:00Z,28.4330,-82.6670,14.37,1111122 
COMPS,ioos:station:USF.COMPS:ARP:1,2019-02-01T12:30:00Z,28.4330,-82.6670,14.32,1111122 
COMPS,ioos:station:USF.COMPS:ARP:1,2019-02-01T12:36:00Z,28.4330,-82.6670,14.33,1111122 
COMPS,ioos:station:USF.COMPS:ARP:1,2019-02-01T12:42:00Z,28.4330,-82.6670,14.33,1111122 
COMPS,ioos:station:USF.COMPS:ARP:1,2019-02-01T12:48:00Z,28.4330,-82.6670,14.42,1111122 
COMPS,ioos:station:USF.COMPS:ARP:1,2019-02-01T12:54:00Z,28.4330,-82.6670,14.56,1111122 
COMPS,ioos:station:USF.COMPS:ARP:1,2019-02-01T13:00:00Z,28.4330,-82.6670,14.55,1111122 
COMPS,ioos:station:USF.COMPS:ARP:1,2019-02-01T13:06:00Z,28.4330,-82.6670,14.68,1111122 
COMPS,ioos:station:USF.COMPS:ARP:1,2019-02-01T13:12:00Z,28.4330,-82.6670,14.84,1111122 
COMPS,ioos:station:USF.COMPS:ARP:1,2019-02-01T13:18:00Z,28.4330,-82.6670,15.08,1111122 
COMPS,ioos:station:USF.COMPS:ARP:1,2019-02-01T13:24:00Z,28.4330,-82.6670,15.25,1111122 
COMPS,ioos:station:USF.COMPS:ARP:1,2019-02-01T13:30:00Z,28.4330,-82.6670,15.38,1111122 
COMPS,ioos:station:USF.COMPS:ARP:1,2019-02-01T13:36:00Z,28.4330,-82.6670,15.58,1111122 
COMPS,ioos:station:USF.COMPS:ARP:1,2019-02-01T13:42:00Z,28.4330,-82.6670,15.88,1111122 
COMPS,ioos:station:USF.COMPS:ARP:1,2019-02-01T13:48:00Z,28.4330,-82.6670,16.17,1111122 
COMPS,ioos:station:USF.COMPS:ARP:1,2019-02-01T13:54:00Z,28.4330,-82.6670,16.56,1111122 
COMPS,ioos:station:USF.COMPS:ARP:1,2019-02-01T14:00:00Z,28.4330,-82.6670,16.72,1111122 
COMPS,ioos:station:USF.COMPS:ARP:1,2019-02-01T14:06:00Z,28.4330,-82.6670,17.04,1111122 
COMPS,ioos:station:USF.COMPS:ARP:1,2019-02-01T14:12:00Z,28.4330,-82.6670,17.34,1111122 
COMPS,ioos:station:USF.COMPS:ARP:1,2019-02-01T14:18:00Z,28.4330,-82.6670,17.58,1111122 
COMPS,ioos:station:USF.COMPS:ARP:1,2019-02-01T14:24:00Z,28.4330,-82.6670,17.81,1111122 
COMPS,ioos:station:USF.COMPS:ARP:1,2019-02-01T14:30:00Z,28.4330,-82.6670,18.04,1111122 
COMPS,ioos:station:USF.COMPS:ARP:1,2019-02-01T14:36:00Z,28.4330,-82.6670,18.26,1111122 
COMPS,ioos:station:USF.COMPS:ARP:1,2019-02-01T14:42:00Z,28.4330,-82.6670,18.5,1111122 
COMPS,ioos:station:USF.COMPS:ARP:1,2019-02-01T14:48:00Z,28.4330,-82.6670,18.69,1111122 
COMPS,ioos:station:USF.COMPS:ARP:1,2019-02-01T14:54:00Z,28.4330,-82.6670,19.1,1111122 
COMPS,ioos:station:USF.COMPS:ARP:1,2019-02-01T15:00:00Z,28.4330,-82.6670,19.18,1111122 
COMPS,ioos:station:USF.COMPS:ARP:1,2019-02-01T15:06:00Z,28.4330,-82.6670,19.41,1111122 
COMPS,ioos:station:USF.COMPS:ARP:1,2019-02-01T15:12:00Z,28.4330,-82.6670,19.68,1111122 
COMPS,ioos:station:USF.COMPS:ARP:1,2019-02-01T15:18:00Z,28.4330,-82.6670,20.03,1111122 
COMPS,ioos:station:USF.COMPS:ARP:1,2019-02-01T15:24:00Z,28.4330,-82.6670,20.55,1111122 
COMPS,ioos:station:USF.COMPS:ARP:1,2019-02-01T15:30:00Z,28.4330,-82.6670,21.44,1111122 
COMPS,ioos:station:USF.COMPS:ARP:1,2019-02-01T15:36:00Z,28.4330,-82.6670,22.9,1111122 
COMPS,ioos:station:USF.COMPS:ARP:1,2019-02-01T15:42:00Z,28.4330,-82.6670,22.85,1111122 
COMPS,ioos:station:USF.COMPS:ARP:1,2019-02-01T15:48:00Z,28.4330,-82.6670,23.04,1111122 
COMPS,ioos:station:USF.COMPS:ARP:1,2019-02-01T15:54:00Z,28.4330,-82.6670,23.33,1111122 
COMPS,ioos:station:USF.COMPS:ARP:1,2019-02-01T16:00:00Z,28.4330,-82.6670,23.3,1111122 
COMPS,ioos:station:USF.COMPS:ARP:1,2019-02-01T16:06:00Z,28.4330,-82.6670,23.52,1111122 
COMPS,ioos:station:USF.COMPS:ARP:1,2019-02-01T16:12:00Z,28.4330,-82.6670,23.73,1111122 
COMPS,ioos:station:USF.COMPS:ARP:1,2019-02-01T16:18:00Z,28.4330,-82.6670,24.0,1111122 
COMPS,ioos:station:USF.COMPS:ARP:1,2019-02-01T16:24:00Z,28.4330,-82.6670,24.37,1111122 
COMPS,ioos:station:USF.COMPS:ARP:1,2019-02-01T16:30:00Z,28.4330,-82.6670,24.68,1111122 
COMPS,ioos:station:USF.COMPS:ARP:1,2019-02-01T16:36:00Z,28.4330,-82.6670,25.1,1111122 
COMPS,ioos:station:USF.COMPS:ARP:1,2019-02-01T16:42:00Z,28.4330,-82.6670,25.0,1111122 
COMPS,ioos:station:USF.COMPS:ARP:1,2019-02-01T16:48:00Z,28.4330,-82.6670,25.23,1111122 
COMPS,ioos:station:USF.COMPS:ARP:1,2019-02-01T16:54:00Z,28.4330,-82.6670,25.5,1111122 
COMPS,ioos:station:USF.COMPS:ARP:1,2019-02-01T17:00:00Z,28.4330,-82.6670,25.57,1111122 
COMPS,ioos:station:USF.COMPS:ARP:1,2019-02-01T17:06:00Z,28.4330,-82.6670,25.76,1111122 
COMPS,ioos:station:USF.COMPS:ARP:1,2019-02-01T17:12:00Z,28.4330,-82.6670,26.19,1111122 
COMPS,ioos:station:USF.COMPS:ARP:1,2019-02-01T17:18:00Z,28.4330,-82.6670,26.76,1111122 
COMPS,ioos:station:USF.COMPS:ARP:1,2019-02-01T17:24:00Z,28.4330,-82.6670,26.84,1111122 
COMPS,ioos:station:USF.COMPS:ARP:1,2019-02-01T17:30:00Z,28.4330,-82.6670,26.9,1111122 
COMPS,ioos:station:USF.COMPS:ARP:1,2019-02-01T17:36:00Z,28.4330,-82.6670,27.12,1111122 
COMPS,ioos:station:USF.COMPS:ARP:1,2019-02-01T17:42:00Z,28.4330,-82.6670,27.08,1111122 
COMPS,ioos:station:USF.COMPS:ARP:1,2019-02-01T17:48:00Z,28.4330,-82.6670,27.38,1111122 
COMPS,ioos:station:USF.COMPS:ARP:1,2019-02-01T17:54:00Z,28.4330,-82.6670,27.46,1111122 
COMPS,ioos:station:USF.COMPS:ARP:1,2019-02-01T18:00:00Z,28.4330,-82.6670,27.63,1111122 
COMPS,ioos:station:USF.COMPS:ARP:1,2019-02-01T18:06:00Z,28.4330,-82.6670,27.98,1111122 
COMPS,ioos:station:USF.COMPS:ARP:1,2019-02-01T18:12:00Z,28.4330,-82.6670,28.03,1111122 
COMPS,ioos:station:USF.COMPS:ARP:1,2019-02-01T18:18:00Z,28.4330,-82.6670,27.78,1111122 
COMPS,ioos:station:USF.COMPS:ARP:1,2019-02-01T18:24:00Z,28.4330,-82.6670,28.08,1111122 
COMPS,ioos:station:USF.COMPS:ARP:1,2019-02-01T18:30:00Z,28.4330,-82.6670,28.32,1111122 
COMPS,ioos:station:USF.COMPS:ARP:1,2019-02-01T18:36:00Z,28.4330,-82.6670,28.3,1111122 
COMPS,ioos:station:USF.COMPS:ARP:1,2019-02-01T18:42:00Z,28.4330,-82.6670,28.28,1111122 
COMPS,ioos:station:USF.COMPS:ARP:1,2019-02-01T18:48:00Z,28.4330,-82.6670,28.48,1111122 
COMPS,ioos:station:USF.COMPS:ARP:1,2019-02-01T18:54:00Z,28.4330,-82.6670,28.4,1111122 
COMPS,ioos:station:USF.COMPS:ARP:1,2019-02-01T19:00:00Z,28.4330,-82.6670,28.27,1111122 
COMPS,ioos:station:USF.COMPS:ARP:1,2019-02-01T19:06:00Z,28.4330,-82.6670,28.27,1111122 
COMPS,ioos:station:USF.COMPS:ARP:1,2019-02-01T19:12:00Z,28.4330,-82.6670,28.28,1111122 
COMPS,ioos:station:USF.COMPS:ARP:1,2019-02-01T19:18:00Z,28.4330,-82.6670,28.44,1111122 
COMPS,ioos:station:USF.COMPS:ARP:1,2019-02-01T19:24:00Z,28.4330,-82.6670,28.89,1111122 
COMPS,ioos:station:USF.COMPS:ARP:1,2019-02-01T19:30:00Z,28.4330,-82.6670,29.03,1111122 
COMPS,ioos:station:USF.COMPS:ARP:1,2019-02-01T19:36:00Z,28.4330,-82.6670,28.74,1111122 
COMPS,ioos:station:USF.COMPS:ARP:1,2019-02-01T19:42:00Z,28.4330,-82.6670,28.59,1111122 
COMPS,ioos:station:USF.COMPS:ARP:1,2019-02-01T19:48:00Z,28.4330,-82.6670,28.47,1111122 
COMPS,ioos:station:USF.COMPS:ARP:1,2019-02-01T19:54:00Z,28.4330,-82.6670,28.67,1111122 
COMPS,ioos:station:USF.COMPS:ARP:1,2019-02-01T20:00:00Z,28.4330,-82.6670,28.62,1111122 
COMPS,ioos:station:USF.COMPS:ARP:1,2019-02-01T20:06:00Z,28.4330,-82.6670,28.72,1111122 
COMPS,ioos:station:USF.COMPS:ARP:1,2019-02-01T20:12:00Z,28.4330,-82.6670,28.94,1111122 
COMPS,ioos:station:USF.COMPS:ARP:1,2019-02-01T20:18:00Z,28.4330,-82.6670,28.69,1111122 
COMPS,ioos:station:USF.COMPS:ARP:1,2019-02-01T20:24:00Z,28.4330,-82.6670,28.83,1111122 
COMPS,ioos:station:USF.COMPS:ARP:1,2019-02-01T20:30:00Z,28.4330,-82.6670,28.94,1111122 
COMPS,ioos:station:USF.COMPS:ARP:1,2019-02-01T20:36:00Z,28.4330,-82.6670,28.83,1111122 
COMPS,ioos:station:USF.COMPS:ARP:1,2019-02-01T20:42:00Z,28.4330,-82.6670,28.61,1111122 
COMPS,ioos:station:USF.COMPS:ARP:1,2019-02-01T20:48:00Z,28.4330,-82.6670,28.76,1111122 
COMPS,ioos:station:USF.COMPS:ARP:1,2019-02-01T20:54:00Z,28.4330,-82.6670,29.06,1111122 
COMPS,ioos:station:USF.COMPS:ARP:1,2019-02-01T21:00:00Z,28.4330,-82.6670,28.93,1111122 
COMPS,ioos:station:USF.COMPS:ARP:1,2019-02-01T21:06:00Z,28.4330,-82.6670,29.37,1111122 
COMPS,ioos:station:USF.COMPS:ARP:1,2019-02-01T21:12:00Z,28.4330,-82.6670,29.16,1111122 
COMPS,ioos:station:USF.COMPS:ARP:1,2019-02-01T21:18:00Z,28.4330,-82.6670,29.27,1111122 
COMPS,ioos:station:USF.COMPS:ARP:1,2019-02-01T21:24:00Z,28.4330,-82.6670,29.3,1111122 
COMPS,ioos:station:USF.COMPS:ARP:1,2019-02-01T21:30:00Z,28.4330,-82.6670,28.61,1111122 
COMPS,ioos:station:USF.COMPS:ARP:1,2019-02-01T21:36:00Z,28.4330,-82.6670,28.47,1111122 
COMPS,ioos:station:USF.COMPS:ARP:1,2019-02-01T21:42:00Z,28.4330,-82.6670,27.59,1111122 
COMPS,ioos:station:USF.COMPS:ARP:1,2019-02-01T21:48:00Z,28.4330,-82.6670,25.0,1111122 
COMPS,ioos:station:USF.COMPS:ARP:1,2019-02-01T21:54:00Z,28.4330,-82.6670,25.64,1111122 
COMPS,ioos:station:USF.COMPS:ARP:1,2019-02-01T22:00:00Z,28.4330,-82.6670,26.55,1111122 
COMPS,ioos:station:USF.COMPS:ARP:1,2019-02-01T22:06:00Z,28.4330,-82.6670,24.95,1111122 
COMPS,ioos:station:USF.COMPS:ARP:1,2019-02-01T22:12:00Z,28.4330,-82.6670,23.99,1111122 
COMPS,ioos:station:USF.COMPS:ARP:1,2019-02-01T22:18:00Z,28.4330,-82.6670,24.02,1111122 
COMPS,ioos:station:USF.COMPS:ARP:1,2019-02-01T22:24:00Z,28.4330,-82.6670,24.09,1111122 
COMPS,ioos:station:USF.COMPS:ARP:1,2019-02-01T22:30:00Z,28.4330,-82.6670,24.68,1111122 
COMPS,ioos:station:USF.COMPS:ARP:1,2019-02-01T22:36:00Z,28.4330,-82.6670,23.85,1111122 
COMPS,ioos:station:USF.COMPS:ARP:1,2019-02-01T22:42:00Z,28.4330,-82.6670,23.53,1111122 
COMPS,ioos:station:USF.COMPS:ARP:1,2019-02-01T22:48:00Z,28.4330,-82.6670,24.82,1111122 
COMPS,ioos:station:USF.COMPS:ARP:1,2019-02-01T22:54:00Z,28.4330,-82.6670,24.79,1111122 
COMPS,ioos:station:USF.COMPS:ARP:1,2019-02-01T23:00:00Z,28.4330,-82.6670,24.67,1111122 
COMPS,ioos:station:USF.COMPS:ARP:1,2019-02-01T23:06:00Z,28.4330,-82.6670,24.65,1111122 
COMPS,ioos:station:USF.COMPS:ARP:1,2019-02-01T23:12:00Z,28.4330,-82.6670,24.25,1111122 
COMPS,ioos:station:USF.COMPS:ARP:1,2019-02-01T23:18:00Z,28.4330,-82.6670,24.41,1111122 
COMPS,ioos:station:USF.COMPS:ARP:1,2019-02-01T23:24:00Z,28.4330,-82.6670,25.18,1111122 
COMPS,ioos:station:USF.COMPS:ARP:1,2019-02-01T23:30:00Z,28.4330,-82.6670,26.6,1111122 
COMPS,ioos:station:USF.COMPS:ARP:1,2019-02-01T23:36:00Z,28.4330,-82.6670,26.15,1111122 
COMPS,ioos:station:USF.COMPS:ARP:1,2019-02-01T23:42:00Z,28.4330,-82.6670,26.22,1111122 
COMPS,ioos:station:USF.COMPS:ARP:1,2019-02-01T23:48:00Z,28.4330,-82.6670,26.82,1111122 
COMPS,ioos:station:USF.COMPS:ARP:1,2019-02-01T23:54:00Z,28.4330,-82.6670,27.05,1111122 
COMPS,ioos:station:USF.COMPS:ARP:1,2019-02-02T00:00:00Z,28.4330,-82.6670,26.94,1111122 
COMPS,ioos:station:USF.COMPS:ARP:1,2019-02-02T00:06:00Z,28.4330,-82.6670,26.82,1111122 
COMPS,ioos:station:USF.COMPS:ARP:1,2019-02-02T00:12:00Z,28.4330,-82.6670,26.55,1111122 
COMPS,ioos:station:USF.COMPS:ARP:1,2019-02-02T00:18:00Z,28.4330,-82.6670,26.61,1111122 
COMPS,ioos:station:USF.COMPS:ARP:1,2019-02-02T00:24:00Z,28.4330,-82.6670,26.65,1111122 
COMPS,ioos:station:USF.COMPS:ARP:1,2019-02-02T00:30:00Z,28.4330,-82.6670,26.6,1111122 
COMPS,ioos:station:USF.COMPS:ARP:1,2019-02-02T00:36:00Z,28.4330,-82.6670,26.58,1111122 
COMPS,ioos:station:USF.COMPS:ARP:1,2019-02-02T00:42:00Z,28.4330,-82.6670,26.53,1111122 
COMPS,ioos:station:USF.COMPS:ARP:1,2019-02-02T00:48:00Z,28.4330,-82.6670,26.48,1111122 
COMPS,ioos:station:USF.COMPS:ARP:1,2019-02-02T00:54:00Z,28.4330,-82.6670,26.63,1111122 
COMPS,ioos:station:USF.COMPS:ARP:1,2019-02-02T01:00:00Z,28.4330,-82.6670,26.52,1111122 
COMPS,ioos:station:USF.COMPS:ARP:1,2019-02-02T01:06:00Z,28.4330,-82.6670,26.47,1111122 
COMPS,ioos:station:USF.COMPS:ARP:1,2019-02-02T01:12:00Z,28.4330,-82.6670,26.44,1111122 
COMPS,ioos:station:USF.COMPS:ARP:1,2019-02-02T01:18:00Z,28.4330,-82.6670,26.4,1111122 
COMPS,ioos:station:USF.COMPS:ARP:1,2019-02-02T01:24:00Z,28.4330,-82.6670,26.38,1111122 
COMPS,ioos:station:USF.COMPS:ARP:1,2019-02-02T01:30:00Z,28.4330,-82.6670,26.37,1111122 
COMPS,ioos:station:USF.COMPS:ARP:1,2019-02-02T01:36:00Z,28.4330,-82.6670,26.38,1111122 
COMPS,ioos:station:USF.COMPS:ARP:1,2019-02-02T01:42:00Z,28.4330,-82.6670,26.43,1111122 
COMPS,ioos:station:USF.COMPS:ARP:1,2019-02-02T01:48:00Z,28.4330,-82.6670,26.74,1111122 
COMPS,ioos:station:USF.COMPS:ARP:1,2019-02-02T01:54:00Z,28.4330,-82.6670,25.58,1111122 
COMPS,ioos:station:USF.COMPS:ARP:1,2019-02-02T02:00:00Z,28.4330,-82.6670,23.22,1111122 
COMPS,ioos:station:USF.COMPS:ARP:1,2019-02-02T02:06:00Z,28.4330,-82.6670,22.91,1111122 
COMPS,ioos:station:USF.COMPS:ARP:1,2019-02-02T02:12:00Z,28.4330,-82.6670,22.83,1111122 
COMPS,ioos:station:USF.COMPS:ARP:1,2019-02-02T02:18:00Z,28.4330,-82.6670,22.66,1111122 
COMPS,ioos:station:USF.COMPS:ARP:1,2019-02-02T02:24:00Z,28.4330,-82.6670,22.52,1111122 
COMPS,ioos:station:USF.COMPS:ARP:1,2019-02-02T02:30:00Z,28.4330,-82.6670,22.52,1111122 
COMPS,ioos:station:USF.COMPS:ARP:1,2019-02-02T02:36:00Z,28.4330,-82.6670,22.53,1111122 
COMPS,ioos:station:USF.COMPS:ARP:1,2019-02-02T02:42:00Z,28.4330,-82.6670,22.52,1111122 
COMPS,ioos:station:USF.COMPS:ARP:1,2019-02-02T02:48:00Z,28.4330,-82.6670,22.54,1111122 
COMPS,ioos:station:USF.COMPS:ARP:1,2019-02-02T02:54:00Z,28.4330,-82.6670,22.57,1111122 
COMPS,ioos:station:USF.COMPS:ARP:1,2019-02-02T03:00:00Z,28.4330,-82.6670,22.38,1111122 
COMPS,ioos:station:USF.COMPS:ARP:1,2019-02-02T03:06:00Z,28.4330,-82.6670,22.32,1111122 